Location: Arena
(42.5007°N, 9.4650°E)
Time: 21:55:15
(UTC+00:00)

Cosmos 1300 - Pass Details

Date: 09 April 2020
Orbit: 511 x 515 km, 82.5° (Epoch: 05 June)

Event Time Altitude Azimuth Distance (km) Brightness Sun altitude
Exits shadow 18:42:50 10° 132° (SE) 1,751 4.8 -8.9°
Reaches altitude 10° 18:42:53 10° 132° (SE) 1,735 4.8 -8.9°
Maximum altitude 18:45:30 18° 88° (E) 1,311 4.2 -9.3°
Drops below altitude 10° 18:48:09 10° 44° (NE) 1,747 5.2 -9.8°
Sets 18:50:47 0° 25° (NNE) 2,641 6.3 -10.2°
